Location: Chiroubles
(46.1812°N, 4.6660°E)
Time: 23:00:41
(UTC+00:00)

SR - Pass Details

Date: 04 December 2020
Orbit: 575 x 880 km, 66.7° (Epoch: 24 January)

Event Time Altitude Azimuth Distance (km) Brightness Sun altitude
Rises 17:05:32 0° 219° (SW) 2,811 ? -11.6°
Reaches altitude 10° 17:07:43 10° 222° (SW) 1,938 ? -12.0°
Maximum altitude 17:12:03 68° 306° (NW) 680 ? -12.7°
Enters shadow 17:16:31 11° 29° (NNE) 2,010 ? -13.4°
